TimeEDT,TemperatureF,Dew PointF,Humidity,Sea Level PressureIn,VisibilityMPH,Wind Direction,Wind SpeedMPH,Gust SpeedMPH,PrecipitationIn,Events,Conditions,WindDirDegrees,DateUTC
12:53 AM,66.0,64.9,96,30.03,5.0,NNE,8.1,-,N/A,,Partly Cloudy,30,2013-10-05 04:53:00
1:22 AM,66.2,64.4,94,30.03,5.0,NNE,6.9,-,N/A,,Mostly Cloudy,20,2013-10-05 05:22:00
1:53 AM,64.9,64.0,97,30.04,4.0,NNE,6.9,-,N/A,,Mostly Cloudy,20,2013-10-05 05:53:00
2:53 AM,66.0,64.9,96,30.03,4.0,NE,5.8,-,N/A,,Overcast,40,2013-10-05 06:53:00
3:53 AM,64.0,63.0,96,30.04,9.0,NNE,5.8,-,N/A,,Overcast,30,2013-10-05 07:53:00
4:53 AM,64.0,63.0,96,30.05,7.0,NNW,6.9,-,N/A,,Overcast,340,2013-10-05 08:53:00
5:53 AM,63.0,62.1,97,30.06,7.0,NE,6.9,-,0.07,,Overcast,40,2013-10-05 09:53:00
6:53 AM,63.0,62.1,97,30.06,6.0,NE,6.9,-,N/A,,Overcast,40,2013-10-05 10:53:00
7:53 AM,63.0,62.1,97,30.07,4.0,Calm,Calm,-,N/A,,Overcast,0,2013-10-05 11:53:00
8:53 AM,64.0,62.1,93,30.09,6.0,NNE,5.8,-,N/A,,Overcast,30,2013-10-05 12:53:00
9:53 AM,64.9,62.1,90,30.10,7.0,NE,5.8,-,N/A,,Overcast,50,2013-10-05 13:53:00
10:45 AM,66.2,62.6,88,30.10,10.0,Calm,Calm,-,N/A,,Overcast,0,2013-10-05 14:45:00
10:53 AM,66.0,62.1,87,30.10,10.0,NE,5.8,-,N/A,,Overcast,50,2013-10-05 14:53:00
11:53 AM,69.1,62.1,78,30.09,10.0,NE,5.8,-,N/A,,Overcast,40,2013-10-05 15:53:00
12:28 PM,71.6,62.6,73,30.08,10.0,NNE,8.1,-,N/A,,Mostly Cloudy,30,2013-10-05 16:28:00
12:39 PM,71.6,62.6,73,30.08,10.0,ENE,4.6,-,N/A,,Scattered Clouds,60,2013-10-05 16:39:00
12:53 PM,73.0,62.1,68,30.08,10.0,North,4.6,-,N/A,,Scattered Clouds,10,2013-10-05 16:53:00
1:16 PM,71.6,62.6,73,30.07,10.0,Variable,4.6,-,N/A,,Mostly Cloudy,0,2013-10-05 17:16:00
1:53 PM,72.0,62.1,71,30.06,10.0,NNE,8.1,-,N/A,,Mostly Cloudy,30,2013-10-05 17:53:00
2:26 PM,73.4,62.6,69,30.05,10.0,Calm,Calm,-,N/A,,Scattered Clouds,0,2013-10-05 18:26:00
2:53 PM,73.0,62.1,68,30.05,10.0,SE,4.6,-,N/A,,Clear,140,2013-10-05 18:53:00
3:53 PM,73.9,63.0,68,30.05,10.0,SSE,5.8,-,N/A,,Partly Cloudy,160,2013-10-05 19:53:00
4:53 PM,71.1,63.0,75,30.06,10.0,South,8.1,-,N/A,,Clear,180,2013-10-05 20:53:00
5:53 PM,68.0,63.0,84,30.06,9.0,South,6.9,-,N/A,,Partly Cloudy,180,2013-10-05 21:53:00
6:09 PM,66.2,62.6,88,30.07,9.0,SSE,6.9,-,N/A,,Mostly Cloudy,150,2013-10-05 22:09:00
6:53 PM,66.9,63.0,87,30.07,9.0,SSE,6.9,-,N/A,,Overcast,160,2013-10-05 22:53:00
7:26 PM,66.2,62.6,88,30.08,10.0,SE,5.8,-,N/A,,Overcast,140,2013-10-05 23:26:00
7:53 PM,66.0,62.1,87,30.07,9.0,SE,8.1,-,N/A,,Overcast,140,2013-10-05 23:53:00
8:53 PM,64.9,62.1,90,30.09,10.0,SSE,8.1,-,N/A,,Overcast,160,2013-10-06 00:53:00
9:53 PM,64.9,62.1,90,30.10,8.0,South,6.9,-,N/A,,Overcast,170,2013-10-06 01:53:00
10:53 PM,64.0,62.1,93,30.10,7.0,SSE,5.8,-,N/A,,Overcast,150,2013-10-06 02:53:00
11:53 PM,64.0,62.1,93,30.10,8.0,SSE,8.1,-,N/A,,Overcast,150,2013-10-06 03:53:00